This demonstration page uses our WeatherBlox Daily Observations layout. Learn more.

Left ArrowRight Arrow

44.8408, -93.29828

Hourly Observations for February 16, 2019

Temp ( °F °C ) Dew Point ( °F °C ) Humidity (%) Winds ( mph kmh ) Pressure ( in mb ) Visibility ( mi km ) Precip ( " mm )
12:53 am 00:53 Mostly Cloudy 1 -17.2 -3 -19.4 83 83 W 3 6 30.24 1024 10 16 0.00 0.00
1:53 am 01:53 Mostly Cloudy 1 -17.2 -4 -20 79 79 WSW 3 6 30.23 1024 10 16 0.00 0.00
2:53 am 02:53 Mostly Cloudy 0 -17.8 -3 -19.4 87 87 Calm 30.23 1024 10 16 0.00 0.00
3:53 am 03:53 Cloudy 0 -17.8 -4 -20 83 83 Calm 30.21 1023 10 16 0.00 0.00
4:53 am 04:53 Cloudy 2 -16.7 -2 -18.9 83 83 Calm 30.22 1023 9 14 0.00 0.00
5:53 am 05:53 Mostly Cloudy -1 -18.3 -3 -19.4 91 91 Calm 30.23 1024 10 16 0.00 0.00
6:53 am 06:53 Mostly Cloudy 0 -17.8 -3 -19.4 87 87 Calm 30.22 1023 10 16 0.00 0.00
7:53 am 07:53 Mostly Cloudy 2 -16.7 -1 -18.3 88 88 Calm 30.23 1024 9 14 0.00 0.00
8:53 am 08:53 Mostly Cloudy 3 -16.1 -1 -18.3 83 83 Calm 30.23 1024 9 14 0.00 0.00
9:53 am 09:53 Mostly Cloudy 5 -15 0 -17.8 79 79 Calm 30.22 1024 10 16 0.00 0.00
10:53 am 10:53 Mostly Cloudy 10 -12.2 5 -15 80 80 Calm 30.21 1023 10 16 0.00 0.00
11:53 am 11:53 Cloudy 13 -10.6 5 -15 70 70 ESE 6 9 30.20 1023 10 16 0.00 0.00
12:53 pm 12:53 Mostly Cloudy 15 -9.4 5 -15 64 64 SE 8 13 30.17 1022 10 16 0.00 0.00
1:53 pm 13:53 Cloudy 18 -7.8 6 -14.4 59 59 SE 5 7 30.14 1021 10 16 0.00 0.00
2:53 pm 14:53 Cloudy 19 -7.2 7 -13.9 59 59 SSE 6 9 30.13 1020 10 16 0.00 0.00
3:53 pm 15:53 Cloudy 20 -6.7 8 -13.3 60 60 ESE 6 9 30.11 1020 10 16 0.00 0.00
4:53 pm 16:53 Cloudy 20 -6.7 9 -12.8 62 62 E 7 11 30.10 1019 10 16 0.00 0.00
5:53 pm 17:53 Cloudy 21 -6.1 10 -12.2 62 62 E 9 15 30.09 1019 10 16 0.00 0.00
6:53 pm 18:53 Cloudy 20 -6.7 10 -12.2 65 65 E 12 19 30.09 1019 10 16 0.00 0.00
7:53 pm 19:53 Cloudy 19 -7.2 10 -12.2 68 68 E 10 17 30.07 1018 10 16 0.00 0.00
8:53 pm 20:53 Cloudy 20 -6.7 10 -12.2 65 65 E 8 13 30.07 1018 10 16 0.00 0.00
9:53 pm 21:53 Cloudy 20 -6.7 10 -12.2 65 65 E 8 13 30.08 1019 10 16 0.00 0.00
10:53 pm 22:53 Cloudy 20 -6.7 10 -12.2 65 65 ENE 8 13 30.07 1018 10 16 0.00 0.00
11:53 pm 23:53 Cloudy 19 -7.2 10 -12.2 68 68 E 7 11 30.08 1019 10 16 0.00 0.00

Powered by AerisWeather